| time (UTC) | temp F | wind direction | speed knots | gust knots | rain 1hr in | rain 24hr in | rain mn in | humidity % | barometer mb |
| 20260510074604 | 40 | 10 | 6.1 | 11.3 | 0.00 | 0.00 | 0.00 | 52 | 1023.5 |
| 20260510073605 | 39 | 10 | 5.2 | 8.7 | 0.00 | 0.00 | 0.00 | 54 | 1023.5 |
| 20260510073104 | 39 | 10 | 4.3 | 10.4 | 0.00 | 0.00 | 0.00 | 55 | 1023.5 |
| 20260510071604 | 39 | 10 | 1.7 | 8.7 | 0.00 | 0.00 | 0.00 | 58 | 1023.5 |
| 20260510071104 | 38 | 10 | 2.6 | 5.2 | 0.00 | 0.00 | 0.00 | 54 | 1023.4 |
| 20260510070604 | 39 | 11 | 1.7 | 5.2 | 0.00 | 0.00 | 0.00 | 55 | 1023.4 |
| 20260510064605 | 38 | 11 | 0.0 | 1.7 | 0.00 | 0.00 | 0.00 | 56 | 1023.2 |
| 20260510064105 | 38 | 11 | 0.9 | 1.7 | 0.00 | 0.00 | 0.00 | 55 | 1023.2 |
| 20260510063605 | 38 | 13 | 0.9 | 2.6 | 0.00 | 0.00 | 0.00 | 57 | 1023.1 |
| 20260510063105 | 38 | 13 | 0.9 | 2.6 | 0.00 | 0.00 | 0.00 | 57 | 1023.0 |
| 20260510061605 | 38 | 13 | 0.9 | 1.7 | 0.00 | 0.00 | 0.00 | 57 | 1022.8 |
| 20260510061107 | 38 | 13 | 0.9 | 2.6 | 0.00 | 0.00 | 0.00 | 57 | 1022.7 |
| 20260510060604 | 38 | 13 | 1.7 | 2.6 | 0.00 | 0.00 | 0.00 | 57 | 1022.7 |
| 20260510060104 | 38 | 13 | 1.7 | 2.6 | 0.00 | 0.00 | 0.00 | 57 | 1022.7 |
| 20260510054604 | 39 | 13 | 1.7 | 2.6 | 0.00 | 0.00 | 0.00 | 55 | 1022.6 |
| 20260510054105 | 39 | 12 | 0.0 | 0.9 | 0.00 | 0.00 | 0.00 | 54 | 1022.5 |
| 20260510053605 | 39 | 12 | 0.9 | 1.7 | 0.00 | 0.00 | 0.00 | 52 | 1022.3 |
| 20260510051604 | 40 | 9 | 0.9 | 1.7 | 0.00 | 0.00 | 0.00 | 54 | 1022.2 |
| 20260510051104 | 40 | 9 | 0.0 | 1.7 | 0.00 | 0.00 | 0.00 | 50 | 1022.3 |
| 20260510050604 | 40 | 9 | 0.9 | 1.7 | 0.00 | 0.00 | 0.00 | 49 | 1022.2 |
| 20260510050104 | 41 | 9 | 0.9 | 4.3 | 0.00 | 0.00 | 0.00 | 50 | 1022.2 |
| 20260510044604 | 42 | 9 | 0.0 | 1.7 | 0.00 | 0.00 | 0.00 | 44 | 1022.0 |
| 20260510044105 | 43 | 9 | 0.9 | 2.6 | 0.00 | 0.00 | 0.00 | 48 | 1022.0 |
| 20260510043604 | 43 | 8 | 1.7 | 2.6 | 0.00 | 0.00 | 0.00 | 43 | 1022.0 |
| 20260510043104 | 43 | 9 | 1.7 | 4.3 | 0.00 | 0.00 | 0.00 | 44 | 1021.9 |
| 20260510041104 | 43 | 9 | 2.6 | 2.6 | 0.00 | 0.00 | 0.00 | 42 | 1021.8 |
| 20260510040604 | 44 | 9 | 1.7 | 2.6 | 0.00 | 0.00 | 0.00 | 42 | 1021.8 |
| 20260510040104 | 44 | 9 | 1.7 | 5.2 | 0.00 | 0.00 | 0.00 | 41 | 1021.8 |
| 20260510034605 | 44 | 9 | 0.9 | 2.6 | 0.00 | 0.00 | 0.00 | 42 | 1021.5 |
| 20260510034104 | 44 | 9 | 0.9 | 2.6 | 0.00 | 0.00 | 0.00 | 42 | 1021.3 |
| 20260510033604 | 44 | 9 | 1.7 | 2.6 | 0.00 | 0.00 | 0.00 | 40 | 1021.2 |
| 20260510031604 | 45 | 9 | 2.6 | 2.6 | 0.00 | 0.00 | 0.00 | 39 | 1020.7 |
| 20260510031104 | 46 | 9 | 2.6 | 4.3 | 0.00 | 0.00 | 0.00 | 39 | 1020.6 |
| 20260510030604 | 46 | 9 | 2.6 | 2.6 | 0.00 | 0.00 | 0.00 | 40 | 1020.5 |
| 20260510030104 | 47 | 9 | 2.6 | 4.3 | 0.00 | 0.00 | 0.00 | 40 | 1020.3 |
| 20260510024604 | 48 | 9 | 2.6 | 2.6 | 0.00 | 0.00 | 0.00 | 38 | 1020.1 |
| 20260510024104 | 49 | 9 | 2.6 | 4.3 | 0.00 | 0.00 | 0.00 | 36 | 1020.1 |
| 20260510023604 | 50 | 15 | 0.9 | 1.7 | 0.00 | 0.00 | 0.00 | 34 | 1020.1 |
| 20260510023104 | 51 | 15 | 1.7 | 2.6 | 0.00 | 0.00 | 0.00 | 32 | 1020.0 |
| 20260510021104 | 53 | 15 | 0.0 | 0.0 | 0.00 | 0.00 | 0.00 | 29 | 1019.8 |
| 20260510014604 | 54 | 14 | 0.9 | 1.7 | 0.00 | 0.00 | 0.00 | 25 | 1019.5 |
| 20260510014104 | 55 | 15 | 1.7 | 5.2 | 0.00 | 0.00 | 0.00 | 24 | 1019.5 |
| 20260510013104 | 55 | 14 | 0.9 | 8.7 | 0.00 | 0.00 | 0.00 | 23 | 1019.5 |
| 20260510011604 | 56 | 14 | 2.6 | 6.1 | 0.00 | 0.00 | 0.00 | 22 | 1019.5 |
| 20260510010104 | 57 | 14 | 3.5 | 8.7 | 0.00 | 0.00 | 0.00 | 23 | 1019.5 |
| 20260510004604 | 58 | 257 | 1.7 | 4.3 | 0.00 | 0.00 | 0.00 | 22 | 1019.5 |
| 20260510004104 | 58 | 269 | 4.3 | 8.7 | 0.00 | 0.00 | 0.00 | 22 | 1019.4 |
| 20260510001604 | 59 | 256 | 5.2 | 10.4 | 0.00 | 0.00 | 0.00 | 20 | 1019.3 |
| 20260510001104 | 59 | 269 | 4.3 | 10.4 | 0.00 | 0.00 | 0.00 | 20 | 1019.4 |
| 20260510000604 | 60 | 259 | 3.5 | 10.4 | 0.00 | 0.00 | 0.00 | 21 | 1019.3 |
| 20260510000104 | 60 | 63 | 2.6 | 10.4 | 0.00 | 0.00 | 0.00 | 21 | 1019.2 |
| 20260509234604 | 60 | 9 | 1.7 | 10.4 | 0.00 | 0.00 | 0.00 | 20 | 1019.3 |
| 20260509234104 | 60 | 14 | 7.0 | 13.0 | 0.00 | 0.00 | 0.00 | 20 | 1019.2 |
| 20260509233604 | 60 | 14 | 5.2 | 13.0 | 0.00 | 0.00 | 0.00 | 21 | 1019.1 |
| 20260509233104 | 60 | 13 | 3.5 | 12.2 | 0.00 | 0.00 | 0.00 | 19 | 1019.0 |
| 20260509231104 | 60 | 12 | 5.2 | 10.4 | 0.00 | 0.00 | 0.00 | 20 | 1019.0 |
| 20260509230604 | 61 | 14 | 5.2 | 10.4 | 0.00 | 0.00 | 0.00 | 19 | 1019.1 |
| 20260509230105 | 61 | 14 | 4.3 | 17.4 | 0.00 | 0.00 | 0.00 | 19 | 1019.0 |
| 20260509224604 | 61 | 15 | 7.0 | 13.9 | 0.00 | 0.00 | 0.00 | 18 | 1018.7 |
| 20260509224104 | 62 | 14 | 5.2 | 10.4 | 0.00 | 0.00 | 0.00 | 19 | 1018.7 |
| 20260509223104 | 61 | 12 | 6.1 | 15.6 | 0.00 | 0.00 | 0.00 | 19 | 1018.7 |
| 20260509221605 | 62 | 11 | 3.5 | 8.7 | 0.00 | 0.00 | 0.00 | 17 | 1018.8 |
| 20260509221106 | 62 | 14 | 2.6 | 12.2 | 0.00 | 0.00 | 0.00 | 18 | 1018.8 |
| 20260509220605 | 63 | 14 | 5.2 | 13.9 | 0.00 | 0.00 | 0.00 | 18 | 1018.8 |
| 20260509220105 | 63 | 9 | 4.3 | 11.3 | 0.00 | 0.00 | 0.00 | 18 | 1018.8 |
| 20260509214605 | 63 | 11 | 4.3 | 13.0 | 0.00 | 0.00 | 0.00 | 18 | 1018.9 |
| 20260509214104 | 62 | 15 | 6.1 | 10.4 | 0.00 | 0.00 | 0.00 | 18 | 1018.9 |
| 20260509213605 | 63 | 13 | 6.1 | 13.0 | 0.00 | 0.00 | 0.00 | 18 | 1018.7 |
| 20260509213105 | 63 | 10 | 2.6 | 14.8 | 0.00 | 0.00 | 0.00 | 17 | 1018.9 |
| 20260509211605 | 62 | 14 | 3.5 | 11.3 | 0.00 | 0.00 | 0.00 | 16 | 1018.9 |
| 20260509211105 | 62 | 13 | 4.3 | 10.4 | 0.00 | 0.00 | 0.00 | 15 | 1018.9 |
| 20260509210605 | 63 | 14 | 4.3 | 12.2 | 0.00 | 0.00 | 0.00 | 18 | 1018.9 |
| 20260509210105 | 63 | 11 | 3.5 | 12.2 | 0.00 | 0.00 | 0.00 | 16 | 1018.7 |
| 20260509204605 | 63 | 10 | 2.6 | 10.4 | 0.00 | 0.00 | 0.00 | 19 | 1018.7 |
| 20260509204106 | 62 | 13 | 2.6 | 10.4 | 0.00 | 0.00 | 0.00 | 17 | 1018.7 |
| 20260509203605 | 62 | 14 | 5.2 | 10.4 | 0.00 | 0.00 | 0.00 | 18 | 1018.8 |
| 20260509201605 | 63 | 14 | 6.1 | 15.6 | 0.00 | 0.00 | 0.00 | 17 | 1018.9 |
| 20260509201105 | 63 | 14 | 4.3 | 10.4 | 0.00 | 0.00 | 0.00 | 18 | 1018.8 |
| 20260509200605 | 62 | 14 | 7.8 | 14.8 | 0.00 | 0.00 | 0.00 | 18 | 1018.9 |
| 20260509200105 | 62 | 14 | 6.1 | 13.0 | 0.00 | 0.00 | 0.00 | 19 | 1018.9 |
| 20260509194605 | 62 | 14 | 4.3 | 13.0 | 0.00 | 0.00 | 0.00 | 16 | 1018.8 |
| 20260509194104 | 62 | 12 | 7.0 | 14.8 | 0.00 | 0.00 | 0.00 | 16 | 1018.7 |
| 20260509193605 | 62 | 13 | 6.1 | 13.9 | 0.00 | 0.00 | 0.00 | 19 | 1018.7 |
| 20260509193105 | 61 | 12 | 5.2 | 17.4 | 0.00 | 0.00 | 0.00 | 19 | 1018.8 |
| 20260509191605 | 62 | 12 | 3.5 | 13.9 | 0.00 | 0.00 | 0.00 | 20 | 1018.6 |
| 20260509190605 | 63 | 14 | 6.1 | 14.8 | 0.00 | 0.00 | 0.00 | 20 | 1018.5 |
| 20260509190105 | 63 | 14 | 3.5 | 13.9 | 0.00 | 0.00 | 0.00 | 20 | 1018.5 |
| 20260509184604 | 62 | 13 | 3.5 | 7.8 | 0.00 | 0.00 | 0.00 | 19 | 1018.7 |
| 20260509184105 | 61 | 14 | 4.3 | 8.7 | 0.00 | 0.00 | 0.00 | 19 | 1018.8 |
| 20260509183605 | 61 | 14 | 7.0 | 13.9 | 0.00 | 0.00 | 0.00 | 19 | 1018.9 |
| 20260509183105 | 61 | 14 | 4.3 | 13.0 | 0.00 | 0.00 | 0.00 | 18 | 1018.8 |
| 20260509181605 | 62 | 14 | 2.6 | 18.2 | 0.00 | 0.00 | 0.00 | 19 | 1018.9 |
| 20260509181105 | 63 | 12 | 4.3 | 8.7 | 0.00 | 0.00 | 0.00 | 20 | 1018.8 |
| 20260509180605 | 62 | 13 | 3.5 | 10.4 | 0.00 | 0.00 | 0.00 | 21 | 1018.8 |
| 20260509180105 | 61 | 14 | 2.6 | 10.4 | 0.00 | 0.00 | 0.00 | 21 | 1019.0 |
| 20260509174604 | 61 | 14 | 4.3 | 10.4 | 0.00 | 0.00 | 0.00 | 19 | 1019.2 |
| 20260509174105 | 60 | 14 | 3.5 | 10.4 | 0.00 | 0.00 | 0.00 | 22 | 1019.2 |
| 20260509173605 | 60 | 14 | 4.3 | 14.8 | 0.00 | 0.00 | 0.00 | 17 | 1019.1 |
| 20260509173105 | 60 | 14 | 2.6 | 11.3 | 0.00 | 0.00 | 0.00 | 19 | 1019.1 |
| 20260509171605 | 59 | 14 | 2.6 | 10.4 | 0.00 | 0.00 | 0.00 | 21 | 1019.3 |
| 20260509170605 | 58 | 9 | 4.3 | 10.4 | 0.00 | 0.00 | 0.00 | 22 | 1019.3 |
| 20260509170105 | 57 | 14 | 4.3 | 10.4 | 0.00 | 0.00 | 0.00 | 21 | 1019.2 |
| 20260509164605 | 57 | 13 | 4.3 | 8.7 | 0.00 | 0.00 | 0.00 | 19 | 1019.1 |
| 20260509164105 | 57 | 15 | 5.2 | 11.3 | 0.00 | 0.00 | 0.00 | 19 | 1019.2 |
| 20260509163605 | 59 | 14 | 7.0 | 10.4 | 0.00 | 0.00 | 0.00 | 19 | 1019.2 |
| 20260509163105 | 59 | 14 | 3.5 | 10.4 | 0.00 | 0.00 | 0.00 | 24 | 1019.0 |
| 20260509161605 | 56 | 14 | 5.2 | 12.2 | 0.00 | 0.00 | 0.00 | 21 | 1018.9 |
| 20260509161105 | 56 | 14 | 3.5 | 7.8 | 0.00 | 0.00 | 0.00 | 24 | 1019.1 |
| 20260509160605 | 56 | 14 | 1.7 | 6.1 | 0.00 | 0.00 | 0.00 | 27 | 1019.0 |
| 20260509160105 | 56 | 13 | 0.9 | 7.8 | 0.00 | 0.00 | 0.00 | 25 | 1018.9 |
| 20260509154604 | 55 | 14 | 4.3 | 5.2 | 0.00 | 0.00 | 0.00 | 26 | 1019.0 |
| 20260509154105 | 55 | 14 | 4.3 | 5.2 | 0.00 | 0.00 | 0.00 | 26 | 1018.9 |
| 20260509153105 | 55 | 14 | 4.3 | 6.1 | 0.00 | 0.00 | 0.00 | 27 | 1018.9 |
| 20260509151604 | 55 | 15 | 2.6 | 4.3 | 0.00 | 0.00 | 0.00 | 28 | 1018.8 |
| 20260509151104 | 54 | 13 | 1.7 | 4.3 | 0.00 | 0.00 | 0.00 | 29 | 1018.8 |
| 20260509150604 | 53 | 12 | 1.7 | 5.2 | 0.00 | 0.00 | 0.00 | 30 | 1018.7 |
| 20260509150105 | 53 | 13 | 2.6 | 5.2 | 0.00 | 0.00 | 0.00 | 29 | 1018.8 |
| 20260509144105 | 51 | 12 | 2.6 | 4.3 | 0.00 | 0.00 | 0.00 | 41 | 1018.8 |
| 20260509143605 | 50 | 12 | 3.5 | 4.3 | 0.00 | 0.00 | 0.00 | 41 | 1018.9 |
| 20260509141605 | 48 | 10 | 0.0 | 0.9 | 0.00 | 0.00 | 0.00 | 47 | 1019.0 |
| 20260509140604 | 46 | 11 | 0.9 | 0.9 | 0.00 | 0.00 | 0.00 | 51 | 1019.1 |
| 20260509140105 | 46 | 11 | 0.9 | 2.6 | 0.00 | 0.00 | 0.00 | 49 | 1019.2 |
| 20260509134604 | 45 | 9 | 0.0 | 0.0 | 0.00 | 0.00 | 0.00 | 49 | 1019.2 |
| 20260509134105 | 45 | 15 | 0.0 | 0.0 | 0.00 | 0.00 | 0.00 | 48 | 1019.3 |
| 20260509133604 | 45 | 15 | 0.0 | 0.0 | 0.00 | 0.00 | 0.00 | 50 | 1019.3 |
| 20260509133105 | 45 | 15 | 0.0 | 0.0 | 0.00 | 0.00 | 0.00 | 52 | 1019.4 |
| 20260509131605 | 41 | 15 | 0.0 | 0.0 | 0.00 | 0.00 | 0.00 | 50 | 1019.5 |
| 20260509131104 | 40 | 15 | 0.0 | 1.7 | 0.00 | 0.00 | 0.00 | 51 | 1019.4 |
| 20260509130605 | 40 | 15 | 0.9 | 1.7 | 0.00 | 0.00 | 0.00 | 52 | 1019.4 |
| 20260509130105 | 39 | 14 | 0.0 | 2.6 | 0.00 | 0.00 | 0.00 | 54 | 1019.3 |
| 20260509124605 | 38 | 6 | 0.0 | 0.9 | 0.00 | 0.00 | 0.00 | 55 | 1018.9 |
| 20260509124105 | 38 | 5 | 0.0 | 0.9 | 0.00 | 0.00 | 0.00 | 57 | 1018.9 |
| 20260509123605 | 38 | 5 | 0.0 | 0.0 | 0.00 | 0.00 | 0.00 | 55 | 1018.9 |
| 20260509123104 | 38 | 5 | 0.9 | 2.6 | 0.00 | 0.00 | 0.00 | 58 | 1018.9 |
| 20260509121104 | 38 | 13 | 0.0 | 1.7 | 0.00 | 0.00 | 0.00 | 58 | 1018.8 |
| 20260509120605 | 38 | 13 | 0.9 | 1.7 | 0.00 | 0.00 | 0.00 | 59 | 1018.7 |
| 20260509114604 | 39 | 9 | 1.7 | 2.6 | 0.00 | 0.00 | 0.00 | 59 | 1018.4 |
| 20260509114104 | 39 | 5 | 0.0 | 0.9 | 0.00 | 0.00 | 0.00 | 59 | 1018.3 |
| 20260509113604 | 39 | 5 | 0.0 | 1.7 | 0.00 | 0.00 | 0.00 | 58 | 1018.4 |
| 20260509113104 | 39 | 5 | 1.7 | 1.7 | 0.00 | 0.00 | 0.00 | 58 | 1018.3 |
| 20260509111104 | 40 | 0 | 0.0 | 1.7 | 0.00 | 0.00 | 0.00 | 59 | 1018.2 |
| 20260509110605 | 40 | 5 | 0.9 | 1.7 | 0.00 | 0.00 | 0.00 | 58 | 1018.2 |
| 20260509110104 | 40 | 5 | 0.0 | 2.6 | 0.00 | 0.00 | 0.00 | 59 | 1018.1 |
| 20260509104605 | 40 | 9 | 0.0 | 0.9 | 0.00 | 0.00 | 0.00 | 60 | 1018.1 |
| 20260509104108 | 40 | 9 | 0.0 | 0.9 | 0.00 | 0.00 | 0.00 | 60 | 1018.1 |
| 20260509103604 | 40 | 9 | 0.0 | 0.0 | 0.00 | 0.00 | 0.00 | 60 | 1018.1 |
| 20260509103105 | 40 | 9 | 0.0 | 2.6 | 0.00 | 0.00 | 0.00 | 61 | 1018.0 |
| 20260509101605 | 41 | 9 | 0.9 | 1.7 | 0.00 | 0.00 | 0.00 | 61 | 1017.9 |
| 20260509101104 | 41 | 9 | 0.0 | 2.6 | 0.00 | 0.00 | 0.00 | 61 | 1017.8 |
| 20260509100605 | 41 | 9 | 0.0 | 1.7 | 0.00 | 0.00 | 0.00 | 60 | 1017.9 |
| 20260509093604 | 41 | 7 | 0.0 | 1.7 | 0.00 | 0.00 | 0.00 | 60 | 1017.6 |
| 20260509093105 | 41 | 8 | 0.9 | 1.7 | 0.00 | 0.00 | 0.00 | 60 | 1017.6 |
| 20260509091604 | 41 | 6 | 0.0 | 1.7 | 0.00 | 0.00 | 0.00 | 60 | 1017.7 |
| 20260509091105 | 42 | 9 | 0.0 | 1.7 | 0.00 | 0.00 | 0.00 | 60 | 1017.6 |
| 20260509090605 | 42 | 9 | 1.7 | 2.6 | 0.00 | 0.00 | 0.00 | 59 | 1017.6 |
| 20260509090104 | 42 | 9 | 0.9 | 5.2 | 0.00 | 0.00 | 0.00 | 58 | 1017.6 |
| 20260509084604 | 43 | 11 | 0.0 | 1.7 | 0.00 | 0.00 | 0.00 | 57 | 1017.5 |
| 20260509084105 | 43 | 11 | 0.9 | 1.7 | 0.00 | 0.00 | 0.00 | 56 | 1017.5 |
| 20260509081605 | 43 | 9 | 1.7 | 6.1 | 0.00 | 0.00 | 0.00 | 57 | 1017.5 |
| 20260509080105 | 42 | 9 | 0.9 | 2.6 | 0.00 | 0.00 | 0.00 | 59 | 1017.5 |